[[{"header":{"parameterUnit":"m.s-1","parameterCategory":1,"la1":30.2991,"la2":30.254,"lo1":-89.0895,"lo2":-89.0444,"dy":0.0017,"dx":0.0017,"nx":28,"ny":28,"refTime":"2024-07-27T09:00:00:Z","depth":0,"parameterNumber":2,"parameterNumberName":"U-component_of_WINDS"},"data":[0,0,0,0,0,0,0,0,0,0,0,0,0,0,0,0,0,0,0,0,0,0,0,0,0,0,0,0,0,0,0,0,0,0,0,0,0,0,0,0,0,0,0,0,0,0,0,0,0,0,0,0,0,0,0,0,0,0,-3.5828,-3.5828,0,-3.5803,-3.5803,-3.5802,-3.5657,-3.5654,-3.565,-3.5647,-3.5625,-3.5628,-3.563,0,0,0,0,0,0,0,0,0,0,0,0,0,-3.5755,-3.5757,-3.5828,-3.5828,-3.5828,-3.5803,-3.5803,-3.5802,-3.5658,-3.5654,-3.565,-3.5646,-3.5624,-3.5627,-3.563,0,0,0,0,0,0,0,0,0,0,0,0,0,-3.5764,-3.5758,-3.5828,-3.5753,-3.5746,-3.5803,-3.5803,-3.5802,-3.5659,-3.5654,-3.5648,-3.5644,-3.5623,-3.5627,-3.5631,-3.576,0,0,-3.5643,-3.5645,0,0,0,0,0,0,0,0,-3.5764,-3.5767,-3.5764,-3.5758,-3.575,-3.5728,-3.5768,-3.5788,-3.566,-3.5692,-3.5647,-3.5641,-3.5664,-3.5664,-3.5671,-3.5759,-3.5758,-3.5643,-3.5646,-3.5648,-3.5649,0,0,0,0,0,0,0,-3.5763,-3.5767,-3.5818,-3.5764,-3.5756,-3.5721,-3.5716,-3.5771,-3.5708,-3.5689,-3.5678,-3.5677,-3.5659,-3.5667,-3.5669,-3.5758,-3.5643,-3.5647,-3.5649,-3.5651,-3.5949,-3.5954,0,0,0,0,0,0,-3.5773,-3.5768,-3.5819,-3.5817,-3.5744,-3.5726,-3.5721,-3.574,-3.5707,-3.5696,-3.5681,-3.567,-3.5663,-3.5665,-3.5668,-3.5814,-3.5648,-3.5651,-3.5654,-3.5943,-3.595,-3.5956,0,0,0,0,0,0,-3.5772,-3.5779,-3.582,-3.579,-3.5792,-3.5733,-3.5756,-3.5743,-3.5751,-3.5701,-3.5689,-3.5702,-3.5659,-3.5662,-3.5737,-3.5811,-3.5653,-3.5657,-3.5937,-3.5945,-3.5953,-3.611,0,0,0,0,0,0,-3.577,-3.5779,-3.5827,-3.5792,-3.5794,-3.589,-3.576,-3.5746,-3.5758,-3.5743,-3.5717,-3.5707,-3.5655,-3.5732,-3.5742,-3.5814,-3.566,-3.593,-3.5941,-3.595,-3.6098,-3.6122,-3.6144,0,0,0,0,0,-3.5768,-3.5874,-3.583,-3.5837,-3.5853,-3.5894,-3.5896,-3.5832,-3.5764,-3.5812,-3.578,-3.5708,-3.5803,-3.5741,-3.575,-3.5825,-3.5925,-3.5938,-3.595,-3.6087,-3.6118,-3.6143,0,0,0,0,0,0,-3.5921,-3.5868,-3.5819,-3.5916,-3.5911,-3.587,-3.5927,-3.5867,-3.5881,-3.5867,-3.5789,-3.5785,-3.5871,-3.5856,-3.5789,-3.5948,-3.5851,-3.5866,-3.5953,-3.5981,-3.6004,-3.6004,-3.5663,0,0,0,0,0,-3.5966,-3.6003,-3.5955,-3.6045,-3.6045,-3.5988,-3.6003,-3.5955,-3.5946,-3.5944,-3.5917,-3.5913,-3.594,-3.5961,-3.5985,-3.6096,-3.6087,-3.6152,-3.6176,-3.6195,-3.6207,-3.6262,-3.629,-3.5997,-3.5997,-3.5996,0,0,-3.6059,-3.6035,-3.6063,-3.6075,-3.6065,-3.6105,-3.5986,-3.6035,-3.6063,-3.5951,-3.6018,-3.6,-3.599,-3.6083,-3.6123,-3.6073,-3.6287,-3.621,-3.6226,-3.6228,-3.6278,-3.6305,-3.633,-3.6005,-3.6004,-3.6002,0,0,-3.6248,-3.6235,-3.6306,-3.6299,-3.6284,-3.6245,-3.6263,-3.6231,-3.6213,-3.628,-3.6196,-3.6231,-3.6282,-3.6277,-3.6282,-3.6469,-3.6403,-3.648,-3.6598,-3.6653,-3.6676,-3.6696,-3.6759,-3.6783,-3.6493,-3.6494,-3.6494,0,-3.6365,-3.6421,-3.6352,-3.6404,-3.6411,-3.6311,-3.6383,-3.638,-3.6375,-3.6382,-3.6328,-3.6388,-3.6375,-3.6463,-3.6509,-3.6518,-3.6534,-3.648,-3.6678,-3.6697,-3.6715,-3.6774,-3.6799,-3.6503,-3.6502,-3.6501,-3.65,0,-3.6565,-3.6605,-3.6665,-3.666,-3.6675,-3.6738,-3.6678,-3.6702,-3.6653,-3.662,-3.6689,-3.6669,-3.6686,-3.6704,-3.6658,-3.6787,-3.6756,-3.6692,-3.6592,-3.6753,-3.6807,-3.683,-3.6516,-3.6513,-3.651,-3.6508,0,0,-3.6847,-3.6802,-3.6825,-3.682,-3.6797,-3.6827,-3.6886,-3.69,-3.692,-3.6922,-3.6967,-3.7013,-3.6952,-3.6957,-3.691,-3.6959,-3.7105,-3.6887,-3.6886,-3.6925,-3.7242,-3.7287,-3.7315,-3.7063,-3.7067,-3.707,-3.7241,0,-3.7024,-3.7118,-3.7057,-3.7161,-3.7196,-3.7102,-3.7152,-3.7144,-3.7116,-3.7142,-3.7112,-3.7143,-3.7062,-3.7064,-3.7109,-3.7078,-3.7167,-3.7065,-3.7102,-3.7105,-3.7103,-3.7344,-3.7393,-3.7555,-3.7262,-3.7266,-3.7269,0,-3.7243,-3.725,-3.7357,-3.7325,-3.7337,-3.7383,-3.739,-3.7418,-3.7407,-3.7383,-3.7389,-3.7329,-3.7384,-3.729,-3.7364,-3.7296,-3.7309,-3.7296,-3.7301,-3.7298,-3.7193,-3.7344,-3.7606,-3.7628,-3.7302,-3.73,-3.7297,0,-3.7432,-3.747,-3.7537,-3.7537,-3.7503,-3.7537,-3.7525,-3.7508,-3.752,-3.7528,-3.7535,-3.7551,-3.7558,-3.7572,-3.7518,-3.7455,-3.7599,-3.7501,-3.7578,-3.758,-3.7609,-3.7607,-3.7872,-3.7626,-3.7625,-3.7625,-3.7624,0,-3.7634,-3.7702,-3.7621,-3.7663,-3.7736,-3.7667,-3.7742,-3.772,-3.7707,-3.7742,-3.7665,-3.77,-3.7628,-3.7657,-3.7616,-3.7682,-3.7688,-3.7669,-3.7656,-3.7673,-3.7675,-3.7676,-3.7662,-3.7631,-3.763,-3.7628,-3.7627,0,-3.7856,-3.7805,-3.7872,-3.7833,-3.7826,-3.7881,-3.7848,-3.7885,-3.7852,-3.7898,-3.7905,-3.7853,-3.7883,-3.7831,-3.7856,-3.7828,-3.7918,-3.7891,-3.7921,-3.7911,-3.799,-3.7982,-3.8262,-3.8293,-3.8031,-3.8034,-3.8036,0,-3.7985,-3.8035,-3.8001,-3.8018,-3.801,-3.804,-3.805,-3.7986,-3.8001,-3.7992,-3.803,-3.8052,-3.8066,-3.8118,-3.8083,-3.8101,-3.807,-3.8167,-3.8072,-3.8087,-3.8066,-3.8062,-3.8065,-3.8185,-3.8189,-3.8191,-3.8193,0,-3.822,-3.8192,-3.821,-3.8219,-3.8234,-3.8239,-3.8239,-3.8258,-3.819,-3.8211,-3.8238,-3.825,-3.8273,-3.8296,-3.8305,-3.8293,-3.8232,-3.8224,-3.8242,-3.8257,-3.8271,-3.826,-3.7969,-3.8217,-3.8215,-3.8213,-3.8212,-3.8211,-3.8396,-3.8434,-3.8415,-3.8438,-3.8431,-3.8432,-3.8463,-3.8434,-3.8455,-3.8467,-3.8429,-3.8465,-3.8453,-3.8459,-3.8454,-3.8482,-3.8438,-3.8466,-3.8472,-3.8478,-3.8489,-3.8271,-3.8484,-3.8483,-3.8483,-3.8482,-3.8481,0,-3.8622,-3.8605,-3.8627,-3.8627,-3.8645,-3.8586,-3.8582,-3.8601,-3.8633,-3.8626,-3.8641,-3.8673,-3.8695,-3.8662,-3.8678,-3.8707,-3.8679,-3.8713,-3.8708,-3.8705,-3.8529,-3.8509,-3.8735,-3.8735,-3.8735,-3.8735,-3.8735,-3.8735,-3.8741,-3.8801,-3.8771,-3.8828,-3.8811,-3.8844,-3.8847,-3.8847,-3.8841,-3.8879,-3.8896,-3.8874,-3.8857,-3.8871,-3.8888,-3.8878,-3.8886,-3.8929,-3.8909,-3.8743,-3.8718,-3.8694,-3.8675,-3.8933,-3.8933,-3.9082,-3.9084,-3.9085]},{"header":{"parameterUnit":"m.s-1","parameterCategory":1,"la1":30.2991,"la2":30.254,"lo1":-89.0895,"lo2":-89.0444,"dy":0.0017,"dx":0.0017,"nx":28,"ny":28,"refTime":"2024-07-27T09:00:00:Z","depth":0,"parameterNumber":3,"parameterNumberName":"V-component_of_WINDS"},"data":[0,0,0,0,0,0,0,0,0,0,0,0,0,0,0,0,0,0,0,0,0,0,0,0,0,0,0,0,0,0,0,0,0,0,0,0,0,0,0,0,0,0,0,0,0,0,0,0,0,0,0,0,0,0,0,0,0,0,1.3399,1.3399,0,1.3463,1.3464,1.3464,1.3368,1.3364,1.3361,1.3358,1.3425,1.343,1.3435,0,0,0,0,0,0,0,0,0,0,0,0,0,1.3195,1.3199,1.3399,1.3399,1.34,1.3463,1.3464,1.3464,1.3368,1.3364,1.336,1.3356,1.3424,1.3429,1.3435,0,0,0,0,0,0,0,0,0,0,0,0,0,1.3274,1.3201,1.3398,1.336,1.3357,1.3463,1.3464,1.3465,1.3369,1.3364,1.3359,1.3354,1.3422,1.3429,1.3436,1.3583,0,0,1.3459,1.3462,0,0,0,0,0,0,0,0,1.327,1.3282,1.3365,1.3363,1.336,1.3402,1.3416,1.3505,1.337,1.3365,1.3358,1.3352,1.3422,1.3429,1.3452,1.3586,1.3589,1.3459,1.3464,1.3467,1.3469,0,0,0,0,0,0,0,1.3264,1.3278,1.3424,1.3366,1.3363,1.334,1.3346,1.3433,1.3421,1.3365,1.3358,1.3367,1.3419,1.3445,1.3453,1.359,1.3459,1.3466,1.347,1.3473,1.3851,1.3857,0,0,0,0,0,0,1.3263,1.3274,1.3422,1.3426,1.3301,1.3348,1.3354,1.3394,1.342,1.3419,1.3371,1.3362,1.3435,1.3444,1.3455,1.3631,1.3467,1.3474,1.3478,1.3846,1.3853,1.3859,0,0,0,0,0,0,1.3259,1.3277,1.3419,1.3348,1.3365,1.3357,1.3402,1.3397,1.3423,1.3424,1.3422,1.3399,1.3431,1.3444,1.3553,1.3632,1.3477,1.3484,1.3839,1.3848,1.3856,1.3983,0,0,0,0,0,0,1.3254,1.3276,1.3332,1.335,1.3369,1.3516,1.3407,1.3402,1.3436,1.3425,1.345,1.345,1.3428,1.3542,1.356,1.3639,1.349,1.3832,1.3843,1.3853,1.3972,1.3995,1.4015,0,0,0,0,0,1.3247,1.3365,1.3335,1.3353,1.3438,1.352,1.3531,1.3504,1.3443,1.3499,1.35,1.3449,1.362,1.3554,1.3573,1.3656,1.3827,1.384,1.3852,1.3962,1.399,1.4014,0,0,0,0,0,0,1.3356,1.3366,1.3333,1.3461,1.3491,1.3504,1.3574,1.3534,1.3582,1.3569,1.3534,1.354,1.3657,1.3667,1.3593,1.3801,1.3713,1.3731,1.3791,1.3817,1.3838,1.3834,1.3496,0,0,0,0,0,1.3395,1.346,1.3466,1.3578,1.3595,1.3582,1.3617,1.3593,1.3623,1.3635,1.3644,1.3675,1.3736,1.3777,1.3832,1.3972,1.3978,1.4039,1.406,1.4078,1.4094,1.4171,1.4199,1.39,1.39,1.39,0,0,1.3476,1.3489,1.3533,1.36,1.362,1.3691,1.3593,1.3671,1.3723,1.3647,1.375,1.3758,1.379,1.3916,1.3971,1.3928,1.4177,1.4094,1.4108,1.4114,1.4187,1.4215,1.424,1.3908,1.3907,1.3906,0,0,1.3659,1.3676,1.3772,1.3794,1.3826,1.3817,1.384,1.386,1.3863,1.3965,1.3911,1.3972,1.4077,1.4103,1.413,1.4326,1.4282,1.4345,1.4457,1.4533,1.4557,1.4578,1.465,1.4676,1.436,1.4361,1.4361,0,1.3756,1.3859,1.3826,1.3909,1.3941,1.3875,1.3973,1.3996,1.4046,1.407,1.402,1.4152,1.4168,1.43,1.4348,1.4371,1.4399,1.4343,1.4556,1.4576,1.4595,1.4664,1.4691,1.4368,1.4367,1.4367,1.4366,0,1.3978,1.405,1.4124,1.4174,1.4214,1.4304,1.4286,1.433,1.4304,1.43,1.4407,1.4425,1.4485,1.4514,1.4488,1.4643,1.4615,1.4561,1.4473,1.4632,1.4696,1.4722,1.4379,1.4377,1.4374,1.4372,0,0,1.4233,1.4264,1.4292,1.4314,1.4345,1.4401,1.4488,1.4546,1.4587,1.4623,1.4697,1.4788,1.4738,1.4769,1.4746,1.4812,1.4969,1.475,1.475,1.4793,1.5144,1.5187,1.5218,1.4939,1.4944,1.4948,1.5142,0,1.4418,1.4569,1.4543,1.469,1.4758,1.4697,1.4774,1.4802,1.4801,1.4859,1.4858,1.4925,1.4853,1.4872,1.4934,1.4937,1.504,1.4922,1.501,1.5014,1.5006,1.525,1.5295,1.5478,1.5167,1.5171,1.5174,0,1.4655,1.47,1.4855,1.4877,1.4904,1.4974,1.5026,1.5081,1.5113,1.5108,1.5143,1.5108,1.5197,1.5106,1.5229,1.515,1.5184,1.5191,1.5197,1.5206,1.5105,1.5269,1.5535,1.5564,1.5213,1.521,1.5207,0,1.4829,1.4928,1.5034,1.5055,1.5083,1.5133,1.5147,1.5173,1.5211,1.5256,1.5281,1.5336,1.5367,1.5412,1.5393,1.5328,1.5521,1.5428,1.5521,1.5522,1.5567,1.5565,1.5845,1.5585,1.5584,1.5584,1.5583,0,1.504,1.5137,1.5113,1.5178,1.5287,1.5256,1.5364,1.537,1.5394,1.5461,1.5411,1.5474,1.5445,1.5507,1.5493,1.5599,1.5612,1.5612,1.5608,1.5619,1.5619,1.5642,1.563,1.5591,1.5589,1.5588,1.5587,0,1.5253,1.524,1.5352,1.5369,1.5376,1.5456,1.5471,1.5533,1.5528,1.5614,1.5632,1.5626,1.5696,1.5682,1.5759,1.575,1.5884,1.5862,1.5874,1.5869,1.5965,1.5957,1.6272,1.6313,1.6024,1.6027,1.6029,0,1.539,1.5464,1.5489,1.553,1.5549,1.5615,1.5653,1.5626,1.5668,1.571,1.5767,1.5833,1.5885,1.6001,1.6005,1.6064,1.6045,1.6152,1.6054,1.6063,1.605,1.6047,1.6056,1.6172,1.6175,1.6178,1.618,0,1.5635,1.5625,1.5682,1.5738,1.5785,1.5827,1.5864,1.5901,1.5877,1.5927,1.5999,1.6039,1.6119,1.6186,1.6242,1.6257,1.6216,1.621,1.6236,1.6248,1.6253,1.6255,1.5929,1.6204,1.6201,1.62,1.6198,1.6197,1.5816,1.588,1.5909,1.5974,1.5999,1.6036,1.6096,1.6099,1.6159,1.6222,1.6202,1.6285,1.6315,1.6386,1.6408,1.6473,1.6433,1.6469,1.6479,1.6489,1.6502,1.6241,1.6482,1.6482,1.6481,1.648,1.648,0,1.6061,1.6077,1.6137,1.6192,1.6244,1.6199,1.6239,1.6286,1.6359,1.6391,1.6443,1.6527,1.6593,1.6601,1.6663,1.6714,1.6697,1.6732,1.6729,1.6734,1.6532,1.6506,1.6745,1.6745,1.6745,1.6745,1.6744,1.6744,1.6195,1.6301,1.6295,1.6415,1.6429,1.651,1.6537,1.6571,1.6597,1.6693,1.6747,1.6752,1.6775,1.6839,1.6897,1.6898,1.6925,1.6968,1.6962,1.6774,1.6748,1.6723,1.6697,1.6973,1.6973,1.7158,1.716,1.7161]}]]